Greer, SC

7:51 AM EST on February 14, 2016 (GMT -0500)
Greenville-Spartanburg International

Weather History for KGSP - March, 2012

Change the Weather History Date:

Friday, March 2, 2012

  Actual Average Record
Temperature  
Mean Temperature 60 °F 49 °F  
Max Temperature 69 °F 60 °F 81 °F (1976)
Min Temperature 50 °F 38 °F 16 °F (1914)
Degree Days  
Heating Degree Days 5 16  
Month to date heating degree days 5 32  
Since 1 July heating degree days 2130 2481  
Cooling Degree Days 0 0  
Month to date cooling degree days 5 0  
Year to date cooling degree days 5 0  
Growing Degree Days 10 (Base 50)    
Moisture  
Dew Point 50 °F    
Average Humidity 69    
Maximum Humidity 86    
Minimum Humidity 51    
Precipitation  
Precipitation 0.04 in 0.14 in 1.80 in (1960)
Month to date precipitation 0.04 0.29  
Year to date precipitation 5.14 8.08  
Snow  
Snow 0.00 in 0.10 in 7.50 in (1942)
Month to date snowfall 0.0 0.1  
Since 1 July snowfall 0.0 3.9  
Snow Depth 0.00 in    
Sea Level Pressure  
Sea Level Pressure 29.80 in    
Wind  
Wind Speed 5 mph (NNE)    
Max Wind Speed 16 mph    
Max Gust Speed 22 mph    
Visibility 10 miles    
Events Rain , Thunderstorm    
T = Trace of Precipitation, MM = Missing Value Source: NWS Daily Summary

Daily Weather History Graph

Daily Weather History Graph

Search for Another Location

Airport or City:

Trip Planner

Search our weather history database for the weather conditions in past years. The results will help you decide how hot, cold, wet, or windy it might be!

Date:

Astronomy

Mar. 02, 2012 Rise Set
Actual Time 6:56 AM EST 6:25 PM EST
Civil Twilight 6:30 AM EST 6:51 PM EST
Nautical Twilight 6:01 AM EST 7:20 PM EST
Astronomical Twilight 5:32 AM EST 7:49 PM EST
Moon 12:47 PM EST (3/2) 2:34 AM EST (3/2)
Length of Visible Light 12h 20m
Length of Day
11h 29m
Waxing Gibbous, 66% of the Moon is Illuminated
Mar 2
Waxing Gibbous
Mar 8
Full
Mar 14
Last Quarter
Mar 22
New
Mar 30
First Quarter

Hourly Weather History & Observations

Time (EST) Temp. Dew Point Humidity Pressure Visibility Wind Dir Wind Speed Gust Speed Precip Events Conditions
12:53 AM 59.0 °F 43.0 °F 55% 29.86 in 10.0 mi SW 5.8 mph - N/A   Clear
1:53 AM 57.9 °F 44.1 °F 60% 29.86 in 10.0 mi SSW 6.9 mph - N/A   Clear
2:53 AM 57.9 °F 46.9 °F 67% 29.85 in 10.0 mi SSW 4.6 mph - N/A   Clear
3:53 AM 55.0 °F 46.9 °F 74% 29.85 in 10.0 mi Calm Calm - N/A   Mostly Cloudy
4:53 AM 55.0 °F 46.9 °F 74% 29.85 in 10.0 mi South 4.6 mph - N/A   Scattered Clouds
5:17 AM 55.4 °F 48.2 °F 77% 29.88 in 10.0 mi Calm Calm - N/A Thunderstorm Mostly Cloudy
5:44 AM 55.4 °F 50.0 °F 82% 29.89 in 10.0 mi NE 6.9 mph - 0.00 in Thunderstorm Overcast
5:53 AM 57.0 °F 51.1 °F 81% 29.86 in 10.0 mi NNE 6.9 mph - 0.00 in   Overcast
6:07 AM 55.4 °F 46.4 °F 72% 29.88 in 10.0 mi NNE 5.8 mph - N/A Thunderstorm Overcast
6:45 AM 53.6 °F 41.0 °F 62% 29.89 in 10.0 mi NE 10.4 mph - 0.00 in   Overcast
6:53 AM 53.1 °F 41.0 °F 64% 29.88 in 10.0 mi NE 6.9 mph - 0.00 in   Overcast
7:53 AM 51.1 °F 46.0 °F 83% 29.91 in 10.0 mi NNE 5.8 mph - 0.00 in Rain Light Rain
8:53 AM 51.1 °F 42.1 °F 71% 29.91 in 10.0 mi ENE 8.1 mph - 0.00 in   Overcast
9:53 AM 53.1 °F 42.1 °F 66% 29.90 in 10.0 mi NE 6.9 mph - N/A   Overcast
10:53 AM 53.1 °F 42.1 °F 66% 29.90 in 10.0 mi Calm Calm - N/A   Overcast
11:53 AM 55.0 °F 44.1 °F 67% 29.88 in 10.0 mi NE 4.6 mph - N/A   Overcast
12:45 PM 57.2 °F 46.4 °F 67% 29.87 in 10.0 mi North 5.8 mph - N/A   Overcast
12:53 PM 57.0 °F 46.9 °F 69% 29.86 in 10.0 mi NNE 5.8 mph - N/A   Overcast
1:26 PM 57.2 °F 46.4 °F 67% 29.84 in 10.0 mi NNE 4.6 mph - N/A   Overcast
1:53 PM 59.0 °F 46.9 °F 64% 29.81 in 10.0 mi NE 3.5 mph - N/A   Mostly Cloudy
2:53 PM 64.9 °F 52.0 °F 63% 29.77 in 10.0 mi East 3.5 mph - N/A   Scattered Clouds
3:53 PM 66.9 °F 55.0 °F 66% 29.75 in 10.0 mi East 4.6 mph - N/A   Overcast
4:53 PM 62.1 °F 53.1 °F 72% 29.73 in 10.0 mi NNE 6.9 mph - 0.00 in   Mostly Cloudy
5:30 PM 60.8 °F 53.6 °F 77% 29.75 in 10.0 mi North 5.8 mph - N/A Thunderstorm Thunderstorm
5:53 PM 59.0 °F 53.1 °F 81% 29.76 in 10.0 mi NW 10.4 mph 19.6 mph 0.00 in   Overcast
6:53 PM 57.0 °F 52.0 °F 83% 29.73 in 10.0 mi NE 4.6 mph - 0.00 in   Mostly Cloudy
7:53 PM 55.0 °F 52.0 °F 89% 29.73 in 10.0 mi Calm Calm - N/A   Mostly Cloudy
8:53 PM 55.0 °F 51.1 °F 86% 29.72 in 10.0 mi NE 3.5 mph - N/A   Overcast
9:53 PM 55.0 °F 51.1 °F 86% 29.70 in 10.0 mi NE 3.5 mph - N/A   Overcast
10:53 PM 59.0 °F 53.1 °F 81% 29.67 in 10.0 mi Calm Calm - N/A   Mostly Cloudy
11:17 PM 68.0 °F 57.2 °F 68% 29.69 in 10.0 mi North 5.8 mph - N/A   Mostly Cloudy
11:24 PM 68.0 °F 57.2 °F 68% 29.69 in 10.0 mi North 4.6 mph - 0.00 in Rain , Thunderstorm Light Thunderstorms and Rain
11:25 PM 68.0 °F 57.2 °F 68% 29.69 in 10.0 mi North 3.5 mph - 0.00 in Rain , Thunderstorm Light Thunderstorms and Rain
11:26 PM 68.0 °F 57.2 °F 68% 29.69 in 10.0 mi Calm Calm - 0.00 in Rain , Thunderstorm Light Thunderstorms and Rain
11:27 PM 68.0 °F 57.2 °F 68% 29.69 in 10.0 mi NNE 3.5 mph - 0.00 in Rain , Thunderstorm Light Thunderstorms and Rain
11:41 PM 64.4 °F 60.8 °F 88% 29.67 in 6.0 mi SW 8.1 mph - 0.02 in Rain Rain
11:53 PM 64.0 °F 60.1 °F 87% 29.65 in 9.0 mi WSW 6.9 mph 17.3 mph 0.04 in Rain Light Rain